Regional Weather Roundup
Issued by NWS

Home | Current Version | Previous Version | Text Only | Print | Product List | Glossary Off
Versions: 1 2 3 4 5 6 7 8 9 10 11 12 13 14 15 16 17 18 19 20 21 22 23 24 25 26 27 28 29 30 31 32 33 34 35 36 37 38 39 40 41 42 43 44 45 46 47 48 49 50

000
ASUS44 KMEG 281010
RWRTN
TENNESSEE HOURLY STATE WEATHER ROUNDUP
NATIONAL WEATHER SERVICE MEMPHIS TN
500 AM CDT THU AUG 28 2014

TNZ002-004-019-021-049-052-054-088>092-281100-
WEST TENNESSEE

CITY           SKY/WX    TMP DP  RH WIND       PRES   REMARKS
MEMPHIS INTL   PTCLDY    76  65  68 SE3       30.02R
NWS MEMPHIS      N/A     71 N/A N/A MISG        N/A
JACKSON        CLEAR     70  68  93 CALM      30.02S FOG
DYERSBURG      CLEAR     73  64  73 CALM      30.03S
UNION CITY       N/A     72  72 100 CALM      30.01S VSB 1/4
PARIS            N/A     68  66  94 CALM      30.03F VSB 3/4
HUNTINGDON     CLEAR     70  69  96 CALM      30.03S
LEXINGTON      CLOUDY    70  70 100 CALM      30.02S VSB 3/4
SAVANNAH       PTCLDY    68  68 100 CALM      30.04R
$$

TNZ008-025-027-028-033-062-065-066-281100-
NORTH MIDDLE TENNESSEE

CITY           SKY/WX    TMP DP  RH WIND       PRES   REMARKS
NASHVILLE      CLEAR     72  70  93 CALM      30.04R
DICKSON        CLEAR     72  70  94 CALM      30.04S
PORTLAND       CLEAR     70  70 100 CALM      30.04R
CLARKSVILLE    CLEAR     71  70  96 CALM      30.03R FOG
LEBANON        CLEAR     70  68  93 CALM      30.03R
SMYRNA         CLEAR     70  69  96 CALM      30.05S
MURFREESBORO   CLEAR     70  67  90 CALM      30.04R
COOKEVILLE     CLEAR     64  64 100 CALM      30.06S
LIVINGSTON     CLEAR     70  68  93 CALM      30.08
GALLATIN       CLEAR     72  71  96 CALM      30.05R
CROSSVILLE     CLEAR     69  62  78 CALM      30.11R HAZE
$$

TNZ061-075-076-078-094-096-097-281100-
SOUTH MIDDLE TENNESSEE

CITY           SKY/WX    TMP DP  RH WIND       PRES   REMARKS
LEWISBURG      CLEAR     65  63  93 CALM      30.04S
FAYETTEVILLE   CLEAR     66  64  94 CALM      30.06R
TULLAHOMA      CLEAR     64  61  88 CALM      30.07S
WINCHESTER     CLEAR     64  64 100 CALM      30.06S
MCMINNVILLE    CLEAR     66  66 100 CALM      30.07R
COLUMBIA         N/A     70  68  94 CALM      30.03S
SHELBYVILLE    CLEAR     66  66 100 CALM      30.06S
$$

TNZ017-018-042-046-047-281100-
NORTHEAST TENNESSEE

CITY           SKY/WX    TMP DP  RH WIND       PRES   REMARKS
TRI CITIES     PTCLDY    61  58  90 NE3       30.08R
ELIZABETHTON   SUNNY     59  57  94 CALM      30.09S
$$

TNZ012-013-036-069-073-074-281100-
CENTRAL EAST TENNESSEE

CITY           SKY/WX    TMP DP  RH WIND       PRES   REMARKS
KNOXVILLE      CLEAR     67  63  87 CALM      30.05S
OAK RIDGE      CLEAR     66  64  93 CALM      30.07S
GATLINBURG     SUNNY     63  61  94 CALM      30.06S
MORRISTOWN     SUNNY     64  63  94 CALM      30.08S
$$

TNZ083-085-099-281100-
SOUTHEAST TENNESSEE

CITY           SKY/WX    TMP DP  RH WIND       PRES   REMARKS
CHATTANOOGA    PTCLDY    68  63  84 CALM      30.05S
$$

SKY/WX REPORTED AS FAIR MEANS FEW OR NO CLOUDS BELOW
12 THOUSAND FEET.



USA.gov is the U.S. government's official web portal to all federal, state and local government web resources and services.